Redwood City, CA

9:30 AM PDT on August 31, 2016 (GMT -0700)
San Carlos

Weather History for KSQL - March, 2013

Change the Weather History Date:

Tuesday, March 19, 2013

  Actual Average Record
Temperature  
Mean Temperature 58 °F -  
Max Temperature 66 °F 67 °F 81 °F (1960)
Min Temperature 50 °F 43 °F 34 °F (1977)
Degree Days  
Heating Degree Days 7    
Growing Degree Days 8 (Base 50)    
Moisture  
Dew Point 44 °F    
Average Humidity 72    
Maximum Humidity 87    
Minimum Humidity 37    
Precipitation  
Precipitation 0.00 in - - ()
Sea Level Pressure  
Sea Level Pressure 30.11 in    
Wind  
Wind Speed 2 mph (South)    
Max Wind Speed 16 mph    
Max Gust Speed 23 mph    
Visibility 10 miles    
Events Rain    
Averages and records for this station are not official NWS values.
T = Trace of Precipitation, MM = Missing Value Source: NWS Daily Summary

Daily Weather History Graph

Daily Weather History Graph

Search for Another Location

Airport or City:

Trip Planner

Search our weather history database for the weather conditions in past years. The results will help you decide how hot, cold, wet, or windy it might be!

Date:

Astronomy

Mar. 19, 2013 Rise Set
Actual Time 7:13 AM PDT 7:20 PM PDT
Civil Twilight 6:47 AM PDT 7:46 PM PDT
Nautical Twilight 6:17 AM PDT 8:16 PM PDT
Astronomical Twilight 5:46 AM PDT 8:47 PM PDT
Moon 12:14 PM PDT (3/19) 2:04 AM PDT (3/19)
Length of Visible Light 12h 58m
Length of Day
12h 06m
Waxing Crescent, 51% of the Moon is Illuminated
Mar 19
Waxing Crescent
Mar 27
Full
Apr 2
Last Quarter
Apr 10
New
Apr 18
First Quarter

Hourly Weather History & Observations

Time (PDT) Temp. Dew Point Humidity Pressure Visibility Wind Dir Wind Speed Gust Speed Precip Events Conditions
12:10 AM 53.6 °F 41.0 °F 62% 30.12 in 10.0 mi Calm Calm - N/A   Clear
12:35 AM 51.8 °F 42.8 °F 71% 30.12 in 10.0 mi SSW 3.5 mph - N/A   Partly Cloudy
12:50 AM 51.8 °F 41.0 °F 67% 30.11 in 10.0 mi SSE 3.5 mph - N/A   Partly Cloudy
1:10 AM 51.8 °F 41.0 °F 67% 30.11 in 10.0 mi SSW 3.5 mph - N/A   Clear
1:30 AM 51.8 °F 42.8 °F 71% 30.12 in 10.0 mi SSW 3.5 mph - N/A   Clear
1:55 AM 50.0 °F 42.8 °F 76% 30.11 in 10.0 mi SSE 3.5 mph - N/A   Mostly Cloudy
2:10 AM 51.8 °F 42.8 °F 71% 30.11 in 10.0 mi SSW 3.5 mph - N/A   Scattered Clouds
2:30 AM 51.8 °F 42.8 °F 71% 30.11 in 10.0 mi South 3.5 mph - N/A   Clear
2:50 AM 50.0 °F 44.6 °F 82% 30.10 in 10.0 mi South 3.5 mph - N/A   Clear
3:10 AM 51.8 °F 44.6 °F 76% 30.10 in 10.0 mi Calm Calm - N/A   Clear
3:30 AM 51.8 °F 44.6 °F 76% 30.09 in 10.0 mi Calm Calm - N/A   Clear
3:55 AM 51.8 °F 46.4 °F 82% 30.08 in 10.0 mi Calm Calm - N/A   Mostly Cloudy
4:10 AM 51.8 °F 44.6 °F 76% 30.08 in 10.0 mi Calm Calm - N/A   Overcast
4:30 AM 51.8 °F 44.6 °F 76% 30.08 in 10.0 mi Calm Calm - N/A   Scattered Clouds
4:50 AM 50.0 °F 44.6 °F 82% 30.08 in 10.0 mi Calm Calm - N/A   Clear
5:10 AM 50.0 °F 44.6 °F 82% 30.08 in 10.0 mi Calm Calm - N/A   Clear
5:30 AM 50.0 °F 44.6 °F 82% 30.08 in 10.0 mi Calm Calm - N/A   Clear
5:50 AM 50.0 °F 44.6 °F 82% 30.09 in 10.0 mi Calm Calm - N/A   Clear
6:15 AM 50.0 °F 44.6 °F 82% 30.09 in 10.0 mi Calm Calm - N/A   Clear
6:30 AM 50.0 °F 44.6 °F 82% 30.10 in 10.0 mi Calm Calm - N/A   Clear
6:50 AM 50.0 °F 44.6 °F 82% 30.10 in 10.0 mi Calm Calm - N/A   Clear
6:54 AM 50.0 °F 42.8 °F 76% 30.10 in 10.0 mi Calm Calm - N/A   Scattered Clouds
7:49 AM 50.0 °F 42.8 °F 76% 30.12 in 10.0 mi Calm Calm - N/A   Mostly Cloudy
8:47 AM 53.6 °F 44.6 °F 72% 30.12 in 10.0 mi Calm Calm - N/A   Mostly Cloudy
9:55 AM 55.4 °F 46.4 °F 72% 30.12 in 10.0 mi Calm Calm - N/A   Overcast
10:49 AM 57.2 °F 46.4 °F 67% 30.12 in 10.0 mi NNE 5.8 mph - N/A   Overcast
11:49 AM 59.0 °F 48.2 °F 67% 30.13 in 10.0 mi Calm Calm - N/A   Mostly Cloudy
12:47 PM 62.6 °F 48.2 °F 59% 30.12 in 10.0 mi NNE 6.9 mph - N/A   Mostly Cloudy
1:47 PM 66.2 °F 44.6 °F 46% 30.10 in 10.0 mi North 11.5 mph - N/A   Mostly Cloudy
2:57 PM 66.2 °F 48.2 °F 52% 30.09 in 10.0 mi WNW 11.5 mph - N/A   Overcast
3:52 PM 64.4 °F 39.2 °F 40% 30.10 in 10.0 mi WSW 16.1 mph 23.0 mph N/A   Overcast
4:47 PM 62.6 °F 35.6 °F 37% 30.13 in 10.0 mi West 6.9 mph - N/A   Overcast
5:47 PM 59.0 °F 33.8 °F 39% 30.14 in 7.0 mi WNW 5.8 mph - N/A   Overcast
6:57 PM 55.4 °F 32.0 °F 41% 30.15 in 7.0 mi NNE 4.6 mph - N/A Rain Light Rain
7:52 PM 51.8 °F 44.6 °F 76% 30.14 in 7.0 mi NE 10.4 mph - N/A Rain Light Rain
8:55 PM 50.0 °F 42.8 °F 76% 30.13 in 7.0 mi ENE 4.6 mph - N/A Rain Light Rain
9:10 PM 50.0 °F 42.8 °F 76% 30.13 in 10.0 mi Calm Calm - N/A   Overcast
9:35 PM 50.0 °F 42.8 °F 76% 30.13 in 10.0 mi South 3.5 mph - N/A   Overcast
9:50 PM 50.0 °F 44.6 °F 82% 30.12 in 10.0 mi Calm Calm - N/A   Overcast
10:30 PM 50.0 °F 44.6 °F 82% 30.11 in 10.0 mi SSE 3.5 mph - N/A   Mostly Cloudy
10:50 PM 50.0 °F 46.4 °F 87% 30.11 in 10.0 mi East 3.5 mph - N/A   Mostly Cloudy
11:10 PM 51.8 °F 46.4 °F 82% 30.11 in 10.0 mi Calm Calm - N/A   Mostly Cloudy
11:30 PM 50.0 °F 44.6 °F 82% 30.11 in 10.0 mi South 3.5 mph - N/A   Mostly Cloudy
11:50 PM 50.0 °F 46.4 °F 87% 30.10 in 10.0 mi South 4.6 mph - N/A   Overcast